GW0416 Weather Reports


time (UTC)temp
F
wind
direction
speed
knots
gust
knots
rain 1hr
in
rain 24hr
in
rain mn
in
humidity
%
barometer
mb
20260504044534 54 39 20.9 29.5 0.00 0.00 0.00 42 1010.5
20260504043036 56 34 24.3 31.3 0.00 0.00 0.00 42 1009.9
20260504041530 55 26 13.0 16.5 0.00 0.00 0.00 43 1009.4
20260504040032 56 22 12.2 14.8 0.00 0.00 0.00 41 1009.1
20260504034531 57 30 11.3 16.5 0.00 0.00 0.00 40 1008.7
20260504033033 57 30 13.0 17.4 0.00 0.00 0.00 39 1008.4
20260504031532 58 33 12.2 17.4 0.00 0.00 0.00 38 1008.2
20260504030031 60 25 16.5 21.7 0.00 0.00 0.00 36 1007.9
20260504024535 61 26 13.9 23.5 0.00 0.00 0.00 34 1007.7
20260504023030 62 26 12.2 16.5 0.00 0.00 0.00 31 1007.6
20260504021532 65 26 13.9 19.1 0.00 0.00 0.00 28 1007.6
20260504020032 67 9 8.7 13.9 0.00 0.00 0.00 23 1007.5
20260504014531 68 355 13.9 20.0 0.00 0.00 0.00 21 1007.7
20260504013037 70 351 15.6 19.1 0.00 0.00 0.00 20 1007.6
20260504011530 70 360 15.6 20.9 0.00 0.00 0.00 20 1007.6
20260504010031 70 336 14.8 22.6 0.00 0.00 0.00 20 1007.6
20260504004530 71 330 13.9 23.5 0.00 0.00 0.00 20 1007.7
20260504003040 71 348 13.0 23.5 0.00 0.00 0.00 20 1007.9
20260504001530 72 360 13.9 20.9 0.00 0.00 0.00 20 1008.1
20260504000028 71 345 12.2 20.9 0.00 0.00 0.00 20 1008.3
20260503234533 72 337 13.9 22.6 0.00 0.00 0.00 20 1008.3
20260503233038 72 342 16.5 22.6 0.00 0.00 0.00 20 1008.3
20260503231531 71 310 7.0 18.2 0.00 0.00 0.00 21 1008.3
20260503230030 72 355 13.0 22.6 0.00 0.00 0.00 21 1008.2
20260503224530 71 306 7.8 20.9 0.00 0.00 0.00 21 1008.4
20260503223030 71 355 11.3 24.3 0.00 0.00 0.00 21 1008.4
20260503221530 71 306 7.8 25.2 0.00 0.00 0.00 21 1008.6
20260503220030 71 316 8.7 19.1 0.00 0.00 0.00 21 1008.9
20260503214532 71 335 14.8 21.7 0.00 0.00 0.00 22 1009.0
20260503213033 71 309 13.9 20.0 0.00 0.00 0.00 22 1009.2
20260503211530 70 323 6.1 20.9 0.00 0.00 0.00 21 1009.5
20260503210028 71 324 8.7 19.1 0.00 0.00 0.00 22 1009.7
20260503204528 70 327 10.4 18.2 0.00 0.00 0.00 22 1009.8
20260503203036 69 283 9.6 19.1 0.00 0.00 0.00 23 1010.0
20260503201532 70 294 10.4 17.4 0.00 0.00 0.00 22 1010.4
20260503200034 69 308 10.4 21.7 0.00 0.00 0.00 23 1010.6
20260503194531 69 324 14.8 25.2 0.00 0.00 0.00 20 1010.7
20260503193030 69 296 9.6 18.2 0.00 0.00 0.00 20 1010.9
20260503191528 69 312 13.0 20.0 0.00 0.00 0.00 22 1011.2
20260503190032 68 281 10.4 19.1 0.00 0.00 0.00 21 1011.2
20260503184536 68 259 11.3 20.9 0.00 0.00 0.00 22 1011.3
20260503183029 68 313 14.8 20.0 0.00 0.00 0.00 22 1011.5
20260503181529 68 269 11.3 21.7 0.00 0.00 0.00 23 1011.6
20260503180035 68 306 8.7 20.0 0.00 0.00 0.00 24 1011.8
20260503174532 67 286 15.6 23.5 0.00 0.00 0.00 24 1012.0
20260503173034 68 298 11.3 20.9 0.00 0.00 0.00 25 1012.2
20260503171537 67 286 8.7 19.1 0.00 0.00 0.00 24 1012.2
20260503081534 48 284 2.6 7.8 0.00 0.00 0.00 67 1015.2
20260503071552 48 266 1.7 5.2 0.00 0.00 0.00 65 1015.7
20260503054530 51 312 1.7 3.5 0.00 0.00 0.00 58 1015.9
20260503053036 52 312 2.6 4.3 0.00 0.00 0.00 54 1015.9